Location: ??????
(55.6130°N, 37.7882°E)
Time: 01:59:51
(UTC+00:00)

CZ-2C R/B - Visible Passes

Search period start: 19 July 2024 00:00
Search period end: 29 July 2024 00:00
Orbit: 665 x 779 km, 98.4° (Epoch: 18 July)

Date Brightness Start Highest point End Pass type
(mag) Time Alt. Az. Time Alt. Az. Time Alt. Az.
19 Jul 5.0 23:43:40 10° NE 23:46:24 15° E 23:49:10 10° ESE visible
21 Jul 5.0 23:43:10 10° NE 23:45:55 15° E 23:48:42 10° ESE visible
23 Jul 5.0 23:42:40 10° NE 23:45:26 15° E 23:48:14 10° ESE visible
25 Jul 4.1 00:30:20 10° NNE 00:34:50 33° E 00:39:24 10° SSE visible
25 Jul 5.0 23:42:09 10° NE 23:44:56 15° E 23:47:44 10° ESE visible
27 Jul 4.1 00:29:48 10° NNE 00:34:20 33° E 00:38:54 10° SSE visible
27 Jul 5.0 23:41:39 10° NE 23:44:25 15° E 23:47:13 10° ESE visible
